EW0415 Weather Reports


time (UTC)temp
C
wind
direction
speed
KPH
gust
KPH
rain 1hr
cm
rain 24hr
cm
rain mn
cm
humidity
%
barometer
mb
20260509013511 16 244 1.6 6.4 0.00 0.00 0.00 82 1032.0
20260509013028 16 0 0.0 4.8 0.00 0.00 0.00 83 1031.9
20260509012511 16 244 0.0 4.8 0.00 0.00 0.00 83 1032.0
20260509012013 16 0 0.0 4.8 0.00 0.00 0.00 84 1032.0
20260509011528 16 0 0.0 4.8 0.00 0.00 0.00 84 1032.1
20260509011010 16 0 0.0 1.6 0.00 0.00 0.00 85 1032.1
20260509010510 16 0 0.0 4.8 0.00 0.00 0.00 85 1032.1
20260509010028 16 0 0.0 4.8 0.00 0.00 0.00 86 1032.1
20260509005515 16 243 0.0 4.8 0.00 0.00 0.00 86 1032.1
20260509005010 16 0 0.0 6.4 0.00 0.00 0.00 86 1032.2
20260509004536 16 0 0.0 6.4 0.00 0.00 0.00 87 1032.1
20260509004009 16 243 0.0 0.0 0.00 0.00 0.00 88 1032.1
20260509003540 15 0 0.0 0.0 0.00 0.00 0.00 88 1032.1
20260509003033 15 0 0.0 0.0 0.00 0.00 0.00 88 1032.1
20260509002514 15 0 0.0 0.0 0.00 0.00 0.00 89 1032.2
20260509002010 15 0 0.0 0.0 0.00 0.00 0.00 89 1032.2
20260509001528 15 0 0.0 0.0 0.00 0.00 0.00 89 1032.3
20260509001012 15 0 0.0 0.0 0.00 0.00 0.00 89 1032.3
20260509000514 15 0 0.0 0.0 0.00 0.00 0.00 89 1032.4
20260509000028 15 0 0.0 0.0 0.00 0.00 0.00 89 1032.3
20260508235509 14 0 0.0 0.0 0.00 0.00 0.00 90 1032.3
20260508235011 14 0 0.0 0.0 0.00 0.00 0.00 89 1032.4
20260508234528 13 0 0.0 0.0 0.00 0.00 0.00 89 1032.3
20260508234010 13 0 0.0 0.0 0.00 0.00 0.00 90 1032.3
20260508233512 13 0 0.0 0.0 0.00 0.00 0.00 90 1032.3
20260508233030 12 0 0.0 0.0 0.00 0.00 0.00 89 1032.3
20260508232509 12 0 0.0 0.0 0.00 0.00 0.00 89 1032.3
20260508232010 12 0 0.0 0.0 0.00 0.00 0.00 89 1032.2
20260508231529 11 0 0.0 0.0 0.00 0.00 0.00 89 1032.2
20260508231010 11 0 0.0 0.0 0.00 0.00 0.00 88 1032.1
20260508230511 11 0 0.0 0.0 0.00 0.00 0.00 88 1032.1
20260508230026 11 0 0.0 0.0 0.00 0.00 0.00 88 1032.0
20260508225516 10 0 0.0 0.0 0.00 0.00 0.00 88 1032.0
20260508225010 10 0 0.0 0.0 0.00 0.00 0.00 88 1032.0
20260508224530 10 0 0.0 0.0 0.00 0.00 0.00 88 1031.8
20260508224009 9 0 0.0 0.0 0.00 0.00 0.00 87 1031.8
20260508223508 8 0 0.0 0.0 0.00 0.00 0.00 87 1031.7
20260508223039 8 0 0.0 0.0 0.00 0.00 0.00 87 1031.7
20260508222509 8 0 0.0 0.0 0.00 0.00 0.00 87 1031.8
20260508222011 8 0 0.0 0.0 0.00 0.00 0.00 86 1031.8
20260508221532 8 0 0.0 0.0 0.00 0.00 0.00 86 1031.8
20260508221010 8 0 0.0 0.0 0.00 0.00 0.00 86 1031.7
20260508220510 8 0 0.0 0.0 0.00 0.00 0.00 86 1031.7
20260508220032 8 0 0.0 0.0 0.00 0.00 0.00 86 1031.8
20260508215510 8 0 0.0 0.0 0.00 0.00 0.00 86 1031.9
20260508215009 8 0 0.0 0.0 0.00 0.00 0.00 86 1031.9
20260508214528 8 0 0.0 0.0 0.00 0.00 0.00 86 1031.8
20260508214013 8 0 0.0 0.0 0.00 0.00 0.00 86 1031.7
20260508213511 8 0 0.0 0.0 0.00 0.00 0.00 86 1031.5
20260508213030 8 0 0.0 0.0 0.00 0.00 0.00 86 1031.5
20260508212511 8 0 0.0 0.0 0.00 0.00 0.00 86 1031.3
20260508212031 8 0 0.0 0.0 0.00 0.00 0.00 86 1031.3
20260508211538 8 0 0.0 0.0 0.00 0.00 0.00 86 1031.3
20260508211010 8 0 0.0 0.0 0.00 0.00 0.00 86 1031.3
20260508210510 8 0 0.0 0.0 0.00 0.00 0.00 86 1031.3
20260508210030 8 0 0.0 0.0 0.00 0.00 0.00 86 1031.2
20260508205511 8 0 0.0 0.0 0.00 0.00 0.00 86 1031.1
20260508205010 8 0 0.0 0.0 0.00 0.00 0.00 86 1031.2
20260508204528 8 0 0.0 0.0 0.00 0.00 0.00 86 1031.2
20260508204011 8 0 0.0 0.0 0.00 0.00 0.00 86 1031.0
20260508203508 8 0 0.0 0.0 0.00 0.00 0.00 86 1031.0
20260508203028 8 0 0.0 0.0 0.00 0.00 0.00 85 1031.0
20260508202510 8 0 0.0 0.0 0.00 0.00 0.00 85 1030.9
20260508202009 8 0 0.0 0.0 0.00 0.00 0.00 85 1030.9
20260508201526 8 0 0.0 0.0 0.00 0.00 0.00 86 1030.9
20260508201011 8 0 0.0 0.0 0.00 0.00 0.00 86 1030.8
20260508200509 8 0 0.0 0.0 0.00 0.00 0.00 86 1030.7
20260508200030 8 0 0.0 0.0 0.00 0.00 0.00 86 1030.8
20260508195512 8 0 0.0 0.0 0.00 0.00 0.00 86 1030.7
20260508195012 8 0 0.0 0.0 0.00 0.00 0.00 85 1030.7
20260508194531 8 0 0.0 0.0 0.00 0.00 0.00 85 1030.8
20260508194010 8 0 0.0 0.0 0.00 0.00 0.00 85 1030.7
20260508193510 8 0 0.0 0.0 0.00 0.00 0.00 85 1030.6
20260508193034 8 0 0.0 0.0 0.00 0.00 0.00 85 1030.5
20260508192509 8 0 0.0 0.0 0.00 0.00 0.00 85 1030.4
20260508192012 8 0 0.0 0.0 0.00 0.00 0.00 85 1030.5
20260508191537 8 0 0.0 0.0 0.00 0.00 0.00 85 1030.4
20260508191009 8 0 0.0 0.0 0.00 0.00 0.00 85 1030.5
20260508190510 8 0 0.0 0.0 0.00 0.00 0.00 85 1030.4
20260508190032 8 0 0.0 0.0 0.00 0.00 0.00 85 1030.5
20260508185509 8 0 0.0 0.0 0.00 0.00 0.00 84 1030.5
20260508185010 8 0 0.0 0.0 0.00 0.00 0.00 85 1030.4
20260508184531 8 0 0.0 0.0 0.00 0.00 0.00 84 1030.3
20260508184009 8 0 0.0 0.0 0.00 0.00 0.00 84 1030.4
20260508183513 8 0 0.0 0.0 0.00 0.00 0.00 84 1030.4
20260508183033 8 0 0.0 0.0 0.00 0.00 0.00 84 1030.4
20260508182510 8 0 0.0 0.0 0.00 0.00 0.00 84 1030.6
20260508182011 8 0 0.0 0.0 0.00 0.00 0.00 84 1030.6
20260508181528 8 0 0.0 0.0 0.00 0.00 0.00 84 1030.7
20260508181010 8 0 0.0 0.0 0.00 0.00 0.00 84 1030.7
20260508180511 8 0 0.0 0.0 0.00 0.00 0.00 84 1030.8
20260508180028 8 0 0.0 0.0 0.00 0.00 0.00 84 1030.8
20260508175512 8 0 0.0 0.0 0.00 0.00 0.00 84 1030.8
20260508175013 8 0 0.0 0.0 0.00 0.00 0.00 84 1030.8
20260508174529 8 0 0.0 0.0 0.00 0.00 0.00 84 1030.8
20260508174008 8 0 0.0 0.0 0.00 0.00 0.00 83 1030.9
20260508173510 8 0 0.0 0.0 0.00 0.00 0.00 83 1030.9
20260508173027 8 0 0.0 0.0 0.00 0.00 0.00 83 1030.9
20260508172510 8 0 0.0 0.0 0.00 0.00 0.00 83 1031.0
20260508172010 8 0 0.0 0.0 0.00 0.00 0.00 83 1031.0
20260508171525 8 0 0.0 0.0 0.00 0.00 0.00 83 1030.9
20260508171014 8 0 0.0 0.0 0.00 0.00 0.00 83 1031.0
20260508170511 8 0 0.0 0.0 0.00 0.00 0.00 83 1031.0
20260508170026 9 0 0.0 0.0 0.00 0.00 0.00 83 1030.9
20260508165511 9 0 0.0 0.0 0.00 0.00 0.00 83 1030.9
20260508165010 9 0 0.0 0.0 0.00 0.00 0.00 83 1030.9
20260508164528 9 0 0.0 0.0 0.00 0.00 0.00 83 1030.9
20260508164009 9 0 0.0 0.0 0.00 0.00 0.00 83 1030.9
20260508163510 9 0 0.0 0.0 0.00 0.00 0.00 83 1030.8
20260508163035 9 0 0.0 0.0 0.00 0.00 0.00 83 1030.8
20260508162510 9 0 0.0 0.0 0.00 0.00 0.00 83 1030.8
20260508162010 9 0 0.0 0.0 0.00 0.00 0.00 83 1030.7
20260508161532 9 0 0.0 0.0 0.00 0.00 0.00 83 1030.8
20260508161012 9 0 0.0 0.0 0.00 0.00 0.00 83 1030.8
20260508160509 9 0 0.0 0.0 0.00 0.00 0.00 82 1031.0
20260508160028 9 0 0.0 0.0 0.00 0.00 0.00 82 1030.9
20260508155510 9 0 0.0 0.0 0.00 0.00 0.00 82 1030.9
20260508155008 9 0 0.0 0.0 0.00 0.00 0.00 82 1030.8
20260508154530 10 0 0.0 0.0 0.00 0.00 0.00 82 1030.7
20260508154010 10 0 0.0 0.0 0.00 0.00 0.00 82 1030.8
20260508153511 10 0 0.0 0.0 0.00 0.00 0.00 82 1030.9
20260508153034 10 0 0.0 0.0 0.00 0.00 0.00 82 1030.9
20260508152510 10 0 0.0 0.0 0.00 0.00 0.00 82 1031.0
20260508152012 10 0 0.0 0.0 0.00 0.00 0.00 82 1030.9
20260508151530 10 0 0.0 0.0 0.00 0.00 0.00 82 1031.0
20260508151011 10 0 0.0 0.0 0.00 0.00 0.00 82 1031.0
20260508150510 10 0 0.0 0.0 0.00 0.00 0.00 82 1031.0
20260508150030 10 0 0.0 0.0 0.00 0.00 0.00 82 1031.0
20260508145510 10 0 0.0 0.0 0.00 0.00 0.00 82 1031.1
20260508145011 10 0 0.0 0.0 0.00 0.00 0.00 82 1031.1
20260508144529 10 0 0.0 0.0 0.00 0.00 0.00 82 1031.1
20260508144007 10 0 0.0 0.0 0.00 0.00 0.00 82 1031.1
20260508143510 10 0 0.0 0.0 0.00 0.00 0.00 82 1031.2
20260508143028 10 0 0.0 0.0 0.00 0.00 0.00 81 1031.1
20260508142511 10 0 0.0 0.0 0.00 0.00 0.00 81 1031.1
20260508142011 10 0 0.0 0.0 0.00 0.00 0.00 81 1031.1
20260508141530 10 0 0.0 0.0 0.00 0.00 0.00 81 1031.1
20260508141010 10 0 0.0 0.0 0.00 0.00 0.00 81 1031.1
20260508140511 10 0 0.0 0.0 0.00 0.00 0.00 81 1031.1
20260508140029 10 0 0.0 0.0 0.00 0.00 0.00 81 1031.1
20260508135514 10 0 0.0 0.0 0.00 0.00 0.00 81 1031.2
20260508135011 11 0 0.0 0.0 0.00 0.00 0.00 81 1031.1
20260508134531 11 0 0.0 0.0 0.00 0.00 0.00 81 1031.2
20260508134010 11 0 0.0 0.0 0.00 0.00 0.00 80 1031.2
20260508133513 11 0 0.0 0.0 0.00 0.00 0.00 80 1031.3
20260508133028 11 0 0.0 0.0 0.00 0.00 0.00 80 1031.4
20260508132511 11 0 0.0 0.0 0.00 0.00 0.00 80 1031.4
20260508132010 11 0 0.0 0.0 0.00 0.00 0.00 80 1031.4
20260508131530 11 0 0.0 0.0 0.00 0.00 0.00 80 1031.5
20260508131010 11 0 0.0 0.0 0.00 0.00 0.00 80 1031.4
20260508130516 11 0 0.0 0.0 0.00 0.00 0.00 80 1031.5
20260508130031 11 0 0.0 0.0 0.00 0.00 0.00 80 1031.6
20260508125512 11 0 0.0 0.0 0.00 0.00 0.00 80 1031.6
20260508125010 11 0 0.0 0.0 0.00 0.00 0.00 80 1031.7
20260508124530 11 0 0.0 0.0 0.00 0.00 0.00 80 1031.6
20260508124009 11 0 0.0 0.0 0.00 0.00 0.00 80 1031.6
20260508123512 12 0 0.0 0.0 0.00 0.00 0.00 80 1031.7
20260508123028 12 0 0.0 0.0 0.00 0.00 0.00 80 1031.6
20260508122508 12 0 0.0 0.0 0.00 0.00 0.00 80 1031.7
20260508122013 12 0 0.0 0.0 0.00 0.00 0.00 80 1031.6
20260508121527 12 0 0.0 0.0 0.00 0.00 0.00 80 1031.7
20260508121011 12 0 0.0 1.6 0.00 0.00 0.00 80 1031.7
20260508120510 12 0 0.0 1.6 0.00 0.00 0.00 80 1031.7
20260508120036 12 0 0.0 1.6 0.00 0.00 0.00 80 1031.7
20260508115510 12 0 0.0 3.2 0.00 0.00 0.00 80 1031.7
20260508115008 12 0 0.0 3.2 0.00 0.00 0.00 79 1031.6
20260508114527 12 0 0.0 3.2 0.00 0.00 0.00 79 1031.7
20260508114014 12 0 0.0 1.6 0.00 0.00 0.00 79 1031.8
20260508113509 12 0 0.0 1.6 0.00 0.00 0.00 79 1031.7
20260508113030 12 0 0.0 0.0 0.00 0.00 0.00 79 1031.6
20260508112515 12 0 0.0 0.0 0.00 0.00 0.00 79 1031.6
20260508112008 12 0 0.0 0.0 0.00 0.00 0.00 79 1031.5
20260508111531 13 0 0.0 0.0 0.00 0.00 0.00 79 1031.5
20260508111008 13 0 0.0 0.0 0.00 0.00 0.00 79 1031.5
20260508110507 13 0 0.0 0.0 0.00 0.00 0.00 79 1031.5
20260508110029 13 0 0.0 0.0 0.00 0.00 0.00 79 1031.4
20260508105509 13 0 0.0 0.0 0.00 0.00 0.00 79 1031.5
20260508105012 13 0 0.0 0.0 0.00 0.00 0.00 79 1031.5
20260508104528 13 0 0.0 1.6 0.00 0.00 0.00 79 1031.5
20260508104008 13 0 0.0 1.6 0.00 0.00 0.00 79 1031.4
20260508103511 13 239 0.0 1.6 0.00 0.00 0.00 78 1031.5
20260508103026 13 0 0.0 1.6 0.00 0.00 0.00 78 1031.4
20260508102508 13 0 0.0 3.2 0.00 0.00 0.00 79 1031.5
20260508102013 14 0 0.0 3.2 0.00 0.00 0.00 79 1031.4
20260508101526 14 0 0.0 1.6 0.00 0.00 0.00 78 1031.4
20260508101008 14 0 0.0 1.6 0.00 0.00 0.00 78 1031.4
20260508100508 14 0 0.0 0.0 0.00 0.00 0.00 79 1031.3
20260508100027 14 0 0.0 0.0 0.00 0.00 0.00 79 1031.3
20260508095508 14 0 0.0 1.6 0.00 0.00 0.00 79 1031.2
20260508095008 15 0 0.0 1.6 0.00 0.00 0.00 79 1031.3
20260508094526 15 0 0.0 1.6 0.00 0.00 0.00 78 1031.4
20260508094009 15 0 0.0 1.6 0.00 0.00 0.00 78 1031.3
20260508093507 15 0 0.0 3.2 0.00 0.00 0.00 79 1031.2
20260508093031 15 0 0.0 3.2 0.00 0.00 0.00 78 1031.3
20260508092509 15 0 0.0 3.2 0.00 0.00 0.00 78 1031.1
20260508092008 15 0 0.0 1.6 0.00 0.00 0.00 78 1031.0
20260508091532 15 0 0.0 1.6 0.00 0.00 0.00 78 1031.1
20260508091009 15 0 0.0 3.2 0.00 0.00 0.00 78 1031.1
20260508090510 15 0 0.0 4.8 0.00 0.00 0.00 78 1031.0
20260508090028 15 0 0.0 4.8 0.00 0.00 0.00 78 1031.0
20260508085510 15 0 0.0 4.8 0.00 0.00 0.00 77 1031.0
20260508085008 15 239 0.0 4.8 0.00 0.00 0.00 77 1030.9
20260508084525 15 240 0.0 4.8 0.00 0.00 0.00 77 1030.9
20260508084008 15 0 0.0 4.8 0.00 0.00 0.00 77 1030.8
20260508083508 15 0 0.0 11.3 0.00 0.00 0.00 77 1030.9
20260508083028 15 0 0.0 11.3 0.00 0.00 0.00 76 1030.8
20260508082512 15 237 0.0 8.0 0.00 0.00 0.00 76 1030.8
20260508082011 16 0 1.6 8.0 0.00 0.00 0.00 75 1030.8
20260508081539 16 238 1.6 6.4 0.00 0.00 0.00 75 1030.8
20260508081008 16 0 0.0 6.4 0.00 0.00 0.00 75 1030.6
20260508080511 16 240 0.0 11.3 0.00 0.00 0.00 75 1030.7
20260508080027 16 240 0.0 11.3 0.00 0.00 0.00 75 1030.6
20260508075512 16 0 1.6 11.3 0.00 0.00 0.00 75 1030.6
20260508075008 16 246 1.6 11.3 0.00 0.00 0.00 74 1030.5
20260508074529 16 251 4.8 11.3 0.00 0.00 0.00 74 1030.6
20260508074011 16 238 3.2 8.0 0.00 0.00 0.00 74 1030.4
20260508073509 16 242 1.6 8.0 0.00 0.00 0.00 74 1030.5
20260508073027 17 240 0.0 14.5 0.00 0.00 0.00 73 1030.6
20260508072508 17 236 1.6 14.5 0.00 0.00 0.00 73 1030.5
20260508072013 17 0 1.6 12.9 0.00 0.00 0.00 73 1030.5
20260508071528 17 257 6.4 12.9 0.00 0.00 0.00 73 1030.5
20260508071008 17 360 3.2 11.3 0.00 0.00 0.00 73 1030.5
20260508070508 17 262 0.0 6.4 0.00 0.00 0.00 73 1030.4
20260508070027 17 360 1.6 11.3 0.00 0.00 0.00 73 1030.4
20260508065509 17 265 1.6 11.3 0.00 0.00 0.00 73 1030.5
20260508065009 17 221 1.6 11.3 0.00 0.00 0.00 73 1030.4
20260508064530 17 0 3.2 12.9 0.00 0.00 0.00 72 1030.5
20260508064008 17 240 1.6 12.9 0.00 0.00 0.00 72 1030.5
20260508063514 17 259 6.4 12.9 0.00 0.00 0.00 72 1030.5
20260508063027 17 360 4.8 12.9 0.00 0.00 0.00 71 1030.5
20260508062508 17 259 1.6 8.0 0.00 0.00 0.00 71 1030.4
20260508062014 17 244 1.6 8.0 0.00 0.00 0.00 71 1030.4
20260508061529 17 248 1.6 14.5 0.00 0.00 0.00 71 1030.5
20260508061009 17 360 3.2 16.1 0.00 0.00 0.00 70 1030.4
20260508060514 18 252 3.2 16.1 0.00 0.00 0.00 70 1030.5
20260508060027 18 214 3.2 12.9 0.00 0.00 0.00 70 1030.4
20260508055507 18 0 1.6 11.3 0.00 0.00 0.00 70 1030.3
20260508055008 18 288 4.8 11.3 0.00 0.00 0.00 70 1030.4
20260508054526 18 242 3.2 12.9 0.00 0.00 0.00 70 1030.3
20260508054008 18 0 3.2 12.9 0.00 0.00 0.00 70 1030.4
20260508053515 18 360 4.8 20.9 0.00 0.00 0.00 70 1030.4
20260508053030 18 315 3.2 20.9 0.00 0.00 0.00 71 1030.3
20260508052509 18 275 4.8 20.9 0.00 0.00 0.00 71 1030.1
20260508052009 18 360 1.6 16.1 0.00 0.00 0.00 71 1030.3
20260508051534 18 301 4.8 16.1 0.00 0.00 0.00 70 1030.3
20260508051011 18 228 3.2 14.5 0.00 0.00 0.00 70 1030.4
20260508050507 18 263 3.2 14.5 0.00 0.00 0.00 71 1030.4
20260508050026 18 281 3.2 16.1 0.00 0.00 0.00 72 1030.4
20260508045509 18 230 4.8 16.1 0.00 0.00 0.00 74 1030.3
20260508045009 17 360 3.2 14.5 0.00 0.00 0.00 75 1030.4
20260508044528 17 255 3.2 12.9 0.00 0.00 0.00 76 1030.4
20260508044012 17 0 1.6 16.1 0.00 0.00 0.00 77 1030.6
20260508043508 17 261 4.8 16.1 0.00 0.00 0.00 78 1030.6
20260508043029 17 253 4.8 16.1 0.00 0.00 0.00 79 1030.7
20260508042510 17 232 4.8 16.1 0.00 0.00 0.00 80 1030.6
20260508042011 17 276 3.2 16.1 0.00 0.00 0.00 81 1030.5
20260508041529 17 269 4.8 16.1 0.00 0.00 0.00 82 1030.7
20260508041008 17 267 6.4 14.5 0.00 0.00 0.00 83 1030.8
20260508040508 17 260 1.6 12.9 0.00 0.00 0.00 84 1030.8
20260508040030 16 259 1.6 12.9 0.00 0.00 0.00 84 1030.8
20260508035514 16 250 3.2 12.9 0.00 0.00 0.00 84 1030.9
20260508035009 16 225 1.6 11.3 0.00 0.00 0.00 83 1031.1
20260508034532 16 0 3.2 12.9 0.00 0.00 0.00 83 1031.1
20260508034008 16 244 3.2 14.5 0.00 0.00 0.00 83 1031.2
20260508033508 16 204 3.2 14.5 0.00 0.00 0.00 83 1031.3
20260508033027 16 254 6.4 14.5 0.00 0.00 0.00 83 1031.4
20260508032509 16 206 3.2 14.5 0.00 0.00 0.00 83 1031.3
20260508032011 16 261 6.4 14.5 0.00 0.00 0.00 83 1031.3
20260508031528 16 225 1.6 12.9 0.00 0.00 0.00 83 1031.4
20260508031008 16 205 4.8 12.9 0.00 0.00 0.00 83 1031.5
20260508030508 16 253 3.2 9.7 0.00 0.00 0.00 83 1031.7
20260508030030 16 253 1.6 11.3 0.00 0.00 0.00 83 1031.6
20260508025510 16 252 1.6 11.3 0.00 0.00 0.00 83 1031.7
20260508025009 16 252 3.2 9.7 0.00 0.00 0.00 83 1031.8
20260508024528 16 225 1.6 9.7 0.00 0.00 0.00 83 1031.8
20260508024007 16 214 1.6 11.3 0.00 0.00 0.00 82 1032.1
20260508023511 16 211 4.8 11.3 0.00 0.00 0.00 82 1032.2
20260508023027 16 269 3.2 12.9 0.00 0.00 0.00 82 1032.2
20260508022507 16 292 6.4 12.9 0.00 0.00 0.00 82 1032.2
20260508022010 16 265 3.2 12.9 0.00 0.00 0.00 83 1032.1
20260508021529 16 266 3.2 12.9 0.00 0.00 0.00 83 1032.3
20260508021010 16 259 3.2 11.3 0.00 0.00 0.00 83 1032.3
20260508020511 16 215 3.2 16.1 0.00 0.00 0.00 83 1032.5
20260508020036 16 190 4.8 16.1 0.00 0.00 0.00 83 1032.5
20260508015512 16 0 1.6 6.4 0.00 0.00 0.00 83 1032.5
20260508015011 16 234 1.6 9.7 0.00 0.00 0.00 82 1032.6
20260508014530 16 0 1.6 12.9 0.00 0.00 0.00 82 1032.7
20260508014009 16 226 4.8 12.9 0.00 0.00 0.00 82 1032.8